FW1764 Weather Reports


time (UTC)temp
C
wind
direction
speed
KPH
gust
KPH
rain 1hr
cm
rain 24hr
cm
rain mn
cm
humidity
%
barometer
mb
20260504234535 26 158 6.4 12.9 0.00 0.00 0.00 48 1004.1
20260504233037 26 138 1.6 14.5 0.00 0.00 0.00 47 1004.1
20260504231532 26 172 4.8 20.9 0.00 0.00 0.00 47 1004.2
20260504230032 27 201 0.0 9.7 0.00 0.00 0.00 47 1004.4
20260504224531 27 196 3.2 8.0 0.00 0.00 0.00 46 1004.3
20260504223037 27 217 4.8 20.9 0.00 0.00 0.00 45 1004.3
20260504221529 27 209 3.2 20.9 0.00 0.00 0.00 45 1004.3
20260504220030 27 187 3.2 12.9 0.00 0.00 0.00 44 1004.2
20260504214527 27 184 3.2 17.7 0.00 0.00 0.00 44 1004.2
20260504213027 27 102 4.8 17.7 0.00 0.00 0.00 44 1004.1
20260504211533 27 216 3.2 12.9 0.00 0.00 0.00 47 1004.0
20260504210018 26 205 1.6 11.3 0.00 0.00 0.00 47 1004.2
20260504204519 26 203 1.6 11.3 0.00 0.00 0.00 48 1004.4
20260504203016 25 217 1.6 8.0 0.00 0.00 0.00 50 1004.6
20260504201517 25 196 1.6 14.5 0.00 0.00 0.00 50 1004.4
20260504200042 25 198 1.6 6.4 0.00 0.00 0.00 47 1005.7
20260504194548 26 179 1.6 14.5 0.00 0.00 0.00 45 1005.8
20260504193039 26 96 6.4 16.1 0.00 0.00 0.00 43 1005.5
20260504191539 27 191 4.8 20.9 0.00 0.00 0.00 45 1005.5
20260504190038 26 164 4.8 19.3 0.00 0.00 0.00 46 1005.5
20260504184545 26 194 6.4 22.5 0.00 0.00 0.00 46 1005.9
20260504183029 26 214 4.8 19.3 0.00 0.00 0.00 45 1005.8
20260504181531 26 184 4.8 12.9 0.00 0.00 0.00 48 1006.0
20260504180026 26 178 3.2 11.3 0.00 0.00 0.00 49 1005.9
20260504174522 26 219 4.8 12.9 0.00 0.00 0.00 49 1006.4
20260504173054 25 146 3.2 16.1 0.00 0.00 0.00 52 1006.5
20260504171548 25 220 3.2 14.5 0.00 0.00 0.00 50 1007.0
20260504081536 17 201 0.0 8.0 0.00 0.00 0.00 68 1009.2
20260504044522 17 196 0.0 8.0 0.00 0.00 0.00 63 1010.6
20260504043027 18 191 1.6 6.4 0.00 0.00 0.00 62 1010.8
20260504041530 18 191 1.6 9.7 0.00 0.00 0.00 62 1010.9
20260504040017 18 191 1.6 6.4 0.00 0.00 0.00 61 1011.2
20260504034519 18 143 0.0 8.0 0.00 0.00 0.00 60 1011.6
20260504033016 18 181 1.6 12.9 0.00 0.00 0.00 59 1011.6
20260504031513 18 193 1.6 8.0 0.00 0.00 0.00 58 1011.4
20260504030012 18 204 0.0 8.0 0.00 0.00 0.00 58 1011.4
20260504024512 18 201 0.0 8.0 0.00 0.00 0.00 57 1011.4
20260504023011 18 204 0.0 6.4 0.00 0.00 0.00 56 1011.2
20260504021508 18 187 0.0 6.4 0.00 0.00 0.00 55 1011.2
20260504020012 19 203 0.0 3.2 0.00 0.00 0.00 55 1011.1
20260504014515 19 204 0.0 3.2 0.00 0.00 0.00 53 1011.1
20260504013008 20 198 0.0 6.4 0.00 0.00 0.00 52 1011.0
20260504011504 20 200 1.6 4.8 0.00 0.00 0.00 51 1010.9
20260504010006 21 207 0.0 6.4 0.00 0.00 0.00 50 1010.8
20260504004511 21 207 0.0 1.6 0.00 0.00 0.00 48 1010.9
20260504003002 22 216 0.0 6.4 0.00 0.00 0.00 46 1010.8
20260504001602 22 197 1.6 9.7 0.00 0.00 0.00 45 1010.9